[[{"header":{"parameterUnit":"m.s-1","parameterCategory":2,"la1":30.2991,"la2":30.254,"lo1":-89.0895,"lo2":-89.0444,"dy":0.0017,"dx":0.0017,"nx":28,"ny":28,"refTime":"2024-10-04T21:00:00:Z","depth":"0","parameterNumber":2,"parameterNumberName":"U-component_of_CURRENTS"},"data":[0,0,0,0,0,0,0,0,0,0,0,0,0,0,0,0,0,0,0,0,0,0,0,0,0,0,0,0,0,0,0,0,0,0,0,0,0,0,0,0,0,0,0,0,0,0,0,0,0,0,0,0,0,0,0,0,0,0,0.1606,0.1606,0,0.1608,0.1607,0.1607,0.1605,0.1605,0.1605,0.1605,0.1607,0.1607,0.1607,0,0,0,0,0,0,0,0,0,0,0,0,0,0.1626,0.1626,0.1606,0.1606,0.1606,0.1608,0.1607,0.1607,0.1605,0.1605,0.1605,0.1605,0.1607,0.1607,0.1607,0,0,0,0,0,0,0,0,0,0,0,0,0,0.162,0.1626,0.1606,0.1606,0.1606,0.1608,0.1607,0.1607,0.1605,0.1605,0.1605,0.1605,0.1607,0.1607,0.1607,0.1606,0,0,0.1607,0.1607,0,0,0,0,0,0,0,0,0.1621,0.1619,0.1606,0.1606,0.1607,0.1607,0.1615,0.1607,0.1605,0.1604,0.1605,0.1605,0.1608,0.1608,0.1606,0.1606,0.1606,0.1607,0.1607,0.1607,0.1607,0,0,0,0,0,0,0,0.1621,0.162,0.1605,0.1606,0.1607,0.1615,0.1614,0.1614,0.1605,0.1604,0.1604,0.1607,0.1608,0.1606,0.1606,0.1606,0.1607,0.1607,0.1607,0.1607,0.1627,0.1627,0,0,0,0,0,0,0.1622,0.162,0.1605,0.1606,0.1615,0.1615,0.1613,0.1606,0.1605,0.1605,0.1607,0.1607,0.1606,0.1606,0.1606,0.1626,0.1607,0.1607,0.1607,0.1626,0.1627,0.1627,0,0,0,0,0,0,0.1622,0.162,0.1605,0.1614,0.1613,0.1614,0.1606,0.1606,0.1607,0.1607,0.1607,0.1608,0.1606,0.1606,0.1611,0.1625,0.1607,0.1607,0.1625,0.1626,0.1627,0.1651,0,0,0,0,0,0,0.1623,0.162,0.1617,0.1614,0.1613,0.1609,0.1606,0.1606,0.1609,0.1609,0.1608,0.1608,0.1606,0.1611,0.1611,0.1625,0.1607,0.1625,0.1626,0.1627,0.165,0.1653,0.1655,0,0,0,0,0,0.1623,0.1614,0.1616,0.1615,0.1607,0.1609,0.1609,0.161,0.1609,0.161,0.1611,0.1608,0.1618,0.1612,0.1612,0.1625,0.1624,0.1625,0.1627,0.1649,0.1652,0.1655,0,0,0,0,0,0,0.1618,0.1613,0.1615,0.1604,0.161,0.1609,0.1609,0.1611,0.1613,0.1613,0.1611,0.1612,0.1623,0.1619,0.1613,0.1634,0.1622,0.1623,0.1639,0.1642,0.1645,0.1654,0.1607,0,0,0,0,0,0.1617,0.1609,0.1612,0.1605,0.1606,0.1609,0.1611,0.1613,0.1614,0.1614,0.1615,0.1619,0.1627,0.163,0.1633,0.1642,0.1656,0.1651,0.1654,0.1656,0.1665,0.1702,0.1709,0.1631,0.1631,0.1631,0,0,0.1612,0.161,0.1605,0.1604,0.1606,0.1613,0.1609,0.1612,0.1622,0.1615,0.1624,0.1627,0.1631,0.1644,0.1649,0.1642,0.1686,0.1658,0.166,0.1667,0.1704,0.1712,0.1719,0.1632,0.1632,0.1631,0,0,0.1605,0.1599,0.1595,0.1601,0.1608,0.1613,0.1616,0.1619,0.1624,0.1633,0.1637,0.165,0.1651,0.1666,0.1672,0.1691,0.1699,0.1689,0.1711,0.1747,0.1754,0.1761,0.1789,0.1797,0.169,0.169,0.169,0,0.1604,0.1596,0.1596,0.16,0.1608,0.1615,0.1622,0.1629,0.1636,0.1648,0.1638,0.1666,0.1666,0.1699,0.1704,0.1699,0.1717,0.1698,0.1752,0.1759,0.1765,0.1792,0.1801,0.1692,0.1692,0.1691,0.1691,0,0.1596,0.1597,0.1595,0.1605,0.1615,0.1619,0.1635,0.1646,0.1652,0.1665,0.1693,0.1698,0.1718,0.172,0.1716,0.1762,0.176,0.1752,0.1745,0.1774,0.1801,0.181,0.1694,0.1693,0.1693,0.1692,0,0,0.1576,0.1588,0.1589,0.1598,0.1618,0.1624,0.1647,0.1672,0.1697,0.1705,0.1739,0.1753,0.1762,0.177,0.1774,0.1803,0.1856,0.1795,0.1797,0.1826,0.1936,0.1884,0.1889,0.186,0.1861,0.1863,0.1936,0,0.1573,0.1581,0.1591,0.1607,0.1614,0.1636,0.166,0.1688,0.1713,0.1747,0.1768,0.1798,0.178,0.1796,0.1822,0.1852,0.1882,0.1837,0.1901,0.1903,0.1856,0.1899,0.1765,0.1815,0.1945,0.1947,0.1948,0,0.1561,0.1571,0.1583,0.1613,0.1619,0.1633,0.168,0.1704,0.1759,0.1783,0.1821,0.1839,0.1887,0.1864,0.1934,0.1906,0.1923,0.1941,0.1944,0.1896,0.1869,0.1807,0.1827,0.1742,0.1962,0.1961,0.196,0,0.1543,0.1564,0.1574,0.1582,0.1618,0.1634,0.1658,0.1713,0.1748,0.1814,0.1848,0.19,0.1933,0.1968,0.1995,0.1973,0.2071,0.2044,0.2016,0.2012,0.191,0.1894,0.1857,0.2097,0.2097,0.2097,0.2096,0,0.1531,0.1538,0.1564,0.1569,0.1594,0.1624,0.1665,0.1703,0.1769,0.1815,0.1864,0.1908,0.1961,0.2014,0.2028,0.2055,0.2099,0.2034,0.2034,0.1913,0.1898,0.1828,0.1801,0.2099,0.2099,0.2098,0.2098,0,0.1509,0.1523,0.1538,0.1572,0.1584,0.1603,0.1665,0.17,0.1764,0.1828,0.1852,0.1936,0.1999,0.2049,0.2117,0.2095,0.2047,0.2124,0.1975,0.1956,0.1818,0.1798,0.1731,0.1678,0.2099,0.2098,0.2097,0,0.1497,0.1501,0.1535,0.1548,0.1562,0.1596,0.1625,0.1691,0.1733,0.1834,0.1862,0.195,0.1998,0.2084,0.2065,0.2092,0.2027,0.198,0.1905,0.1803,0.1782,0.1716,0.1672,0.1784,0.1781,0.1778,0.1776,0,0.1484,0.1495,0.1512,0.1537,0.156,0.1587,0.1629,0.1659,0.1735,0.1788,0.1863,0.1914,0.1977,0.1942,0.1968,0.1958,0.1837,0.1926,0.1861,0.1569,0.1456,0.1405,0.1746,0.1753,0.1756,0.1757,0.1758,0.1759,0.1479,0.1486,0.1508,0.1527,0.155,0.1564,0.1567,0.161,0.1657,0.1692,0.1785,0.1793,0.1786,0.1794,0.1791,0.1644,0.1686,0.1551,0.155,0.1504,0.1396,0.1685,0.1665,0.1666,0.1668,0.1669,0.167,0,0.1472,0.1479,0.1498,0.1509,0.151,0.1533,0.1558,0.1542,0.1552,0.1579,0.1612,0.1545,0.1486,0.147,0.135,0.127,0.1208,0.1218,0.1084,0.1073,0.1357,0.1285,0.113,0.113,0.1131,0.1131,0.1131,0.1131,0.1471,0.1475,0.1476,0.1463,0.1464,0.1434,0.1429,0.1409,0.1405,0.1339,0.1271,0.1262,0.1232,0.1107,0.0981,0.0956,0.0868,0.08,0.0851,0.1027,0.1056,0.1085,0.1009,0.08,0.0799,0.0476,0.0473,0.0471]},{"header":{"parameterUnit":"m.s-1","parameterCategory":2,"la1":30.2991,"la2":30.254,"lo1":-89.0895,"lo2":-89.0444,"dy":0.0017,"dx":0.0017,"nx":28,"ny":28,"refTime":"2024-10-04T21:00:00:Z","depth":"0","parameterNumber":3,"parameterNumberName":"V-component_of_CURRENTS"},"data":[0,0,0,0,0,0,0,0,0,0,0,0,0,0,0,0,0,0,0,0,0,0,0,0,0,0,0,0,0,0,0,0,0,0,0,0,0,0,0,0,0,0,0,0,0,0,0,0,0,0,0,0,0,0,0,0,0,0,-0.0109,-0.011,0,-0.0165,-0.0166,-0.0167,-0.0214,-0.0215,-0.0215,-0.0215,-0.0287,-0.0289,-0.029,0,0,0,0,0,0,0,0,0,0,0,0,0,-0.0094,-0.0094,-0.0109,-0.011,-0.011,-0.0165,-0.0166,-0.0167,-0.0214,-0.0215,-0.0215,-0.0215,-0.0287,-0.0288,-0.029,0,0,0,0,0,0,0,0,0,0,0,0,0,-0.0122,-0.0094,-0.0109,-0.0139,-0.0142,-0.0165,-0.0166,-0.0167,-0.0214,-0.0215,-0.0215,-0.0216,-0.0286,-0.0288,-0.0291,-0.0295,0,0,-0.0298,-0.0299,0,0,0,0,0,0,0,0,-0.012,-0.0123,-0.0134,-0.0137,-0.0141,-0.0182,-0.0187,-0.021,-0.0214,-0.0189,-0.0215,-0.0216,-0.0252,-0.0257,-0.0269,-0.0298,-0.0301,-0.0298,-0.03,-0.0301,-0.0301,0,0,0,0,0,0,0,-0.0118,-0.0121,-0.0134,-0.0135,-0.0138,-0.0167,-0.0171,-0.0192,-0.0219,-0.0191,-0.0194,-0.0197,-0.0254,-0.0266,-0.0271,-0.0303,-0.0298,-0.03,-0.0302,-0.0303,-0.033,-0.0329,0,0,0,0,0,0,-0.0104,-0.0119,-0.0132,-0.0135,-0.0129,-0.0166,-0.0171,-0.0169,-0.0218,-0.0225,-0.0197,-0.0199,-0.0262,-0.0268,-0.0274,-0.027,-0.0301,-0.0303,-0.0304,-0.0331,-0.033,-0.0329,0,0,0,0,0,0,-0.0103,-0.0104,-0.0129,-0.0127,-0.0132,-0.0165,-0.0163,-0.017,-0.018,-0.0222,-0.023,-0.0199,-0.0263,-0.027,-0.0288,-0.0274,-0.0304,-0.0306,-0.0331,-0.033,-0.0329,-0.0271,0,0,0,0,0,0,-0.0103,-0.0104,-0.0099,-0.0126,-0.0131,-0.0134,-0.0163,-0.0171,-0.018,-0.0184,-0.0226,-0.0234,-0.0264,-0.0284,-0.029,-0.0278,-0.0308,-0.0332,-0.0331,-0.033,-0.0273,-0.0268,-0.0263,0,0,0,0,0,-0.0102,-0.009,-0.0098,-0.0099,-0.0122,-0.0133,-0.0138,-0.0166,-0.018,-0.0178,-0.0209,-0.0232,-0.028,-0.0285,-0.0293,-0.0281,-0.0333,-0.0331,-0.033,-0.0276,-0.0269,-0.0263,0,0,0,0,0,0,-0.0084,-0.0095,-0.0104,-0.0097,-0.0109,-0.014,-0.0143,-0.0159,-0.0182,-0.0187,-0.0227,-0.0236,-0.0247,-0.0269,-0.0274,-0.0284,-0.0308,-0.0308,-0.0265,-0.0259,-0.0253,-0.0244,-0.031,0,0,0,0,0,-0.0075,-0.0069,-0.0085,-0.008,-0.0083,-0.0111,-0.0119,-0.0135,-0.0158,-0.0169,-0.0197,-0.0224,-0.0246,-0.0256,-0.0281,-0.0285,-0.0304,-0.028,-0.0275,-0.027,-0.0267,-0.0284,-0.028,-0.0324,-0.0324,-0.0324,0,0,-0.0068,-0.0072,-0.007,-0.0076,-0.009,-0.0089,-0.0117,-0.0123,-0.0124,-0.0172,-0.0181,-0.0209,-0.0244,-0.0252,-0.0258,-0.0268,-0.0266,-0.0268,-0.0264,-0.0263,-0.0282,-0.0278,-0.0274,-0.0323,-0.0323,-0.0323,0,0,-0.0049,-0.0052,-0.0041,-0.0045,-0.0056,-0.007,-0.0066,-0.0089,-0.01,-0.0111,-0.0145,-0.0161,-0.0194,-0.0214,-0.0229,-0.0206,-0.024,-0.0212,-0.0176,-0.0192,-0.0189,-0.0186,-0.0197,-0.0196,-0.0206,-0.0206,-0.0206,0,-0.004,-0.0028,-0.004,-0.0031,-0.0032,-0.0056,-0.0046,-0.0058,-0.0084,-0.0088,-0.0105,-0.0148,-0.0175,-0.0185,-0.0178,-0.0194,-0.0209,-0.0198,-0.0185,-0.0183,-0.0181,-0.0193,-0.0193,-0.0203,-0.0204,-0.0204,-0.0204,0,-0.0014,-0.0005,0.0001,0.0007,0.0006,0.0011,-0.0003,-0.0006,-0.0022,-0.0037,-0.005,-0.0087,-0.0112,-0.0119,-0.0144,-0.0141,-0.0158,-0.0179,-0.0201,-0.0173,-0.0188,-0.0188,-0.0199,-0.02,-0.0201,-0.0202,0,0,0.0006,0.0018,0.002,0.0028,0.0027,0.0028,0.0034,0.0031,0.0038,0.0013,0.0015,-0.0018,-0.0038,-0.0056,-0.0086,-0.0097,-0.0095,-0.0127,-0.013,-0.0136,-0.0128,-0.0114,-0.0114,-0.0116,-0.0116,-0.0116,-0.014,0,0.0029,0.0056,0.0055,0.0077,0.0088,0.0075,0.0082,0.0077,0.0068,0.0066,0.0032,0.002,-0.0013,-0.0023,-0.0039,-0.0085,-0.0095,-0.0087,-0.0156,-0.0157,-0.0147,-0.0113,-0.0064,-0.0079,-0.0141,-0.0141,-0.0141,0,0.0055,0.007,0.0097,0.0112,0.0116,0.0125,0.0134,0.014,0.0132,0.0124,0.011,0.008,0.006,0.0025,-0.0029,-0.0023,-0.0068,-0.0103,-0.0105,-0.0114,-0.0144,-0.0118,-0.0078,-0.0114,-0.0142,-0.0142,-0.0142,0,0.0076,0.01,0.0123,0.0128,0.0141,0.0149,0.0155,0.0158,0.0173,0.0164,0.017,0.0134,0.0119,0.006,-0.0006,-0.0021,-0.0067,-0.0099,-0.0127,-0.0127,-0.0109,-0.0107,-0.0109,-0.0135,-0.0135,-0.0135,-0.0135,0,0.0102,0.012,0.0134,0.0146,0.0175,0.0174,0.0205,0.0205,0.0218,0.0244,0.0203,0.0215,0.0127,0.0089,0.0016,-0.0045,-0.0049,-0.0111,-0.0128,-0.0086,-0.0081,-0.0133,-0.0168,-0.0136,-0.0136,-0.0136,-0.0136,0,0.0122,0.013,0.0159,0.0177,0.0186,0.0207,0.0241,0.0267,0.027,0.0303,0.0302,0.0279,0.024,0.0155,0.0066,-0.0004,-0.0091,-0.01,-0.0038,-0.0047,-0.0108,-0.0143,-0.017,-0.0204,-0.0133,-0.0133,-0.0133,0,0.0135,0.0151,0.0183,0.0205,0.0215,0.0248,0.0274,0.0291,0.0327,0.0348,0.037,0.0345,0.035,0.0235,0.0118,0.0009,-0.0062,-0.0043,-0.0062,-0.0091,-0.0143,-0.0163,-0.0192,-0.0016,-0.0015,-0.0014,-0.0013,0,0.0161,0.0171,0.0195,0.0238,0.027,0.0313,0.0353,0.0389,0.0415,0.0456,0.0503,0.0511,0.0418,0.0353,0.0198,0.0108,-0.0051,-0.0028,-0.0073,-0.0056,-0.0063,-0.011,-0.0023,-0.0004,-0.0005,-0.0006,-0.0006,-0.0007,0.0181,0.0202,0.0234,0.0276,0.0317,0.0372,0.0411,0.0471,0.0543,0.0606,0.061,0.0646,0.0538,0.0357,0.0234,0.0049,0.0012,-0.001,-0.0051,-0.0071,-0.0091,0.0021,0.0029,0.0028,0.0027,0.0027,0.0026,0,0.0207,0.023,0.027,0.032,0.0368,0.0384,0.0461,0.0512,0.0608,0.0682,0.0741,0.072,0.0611,0.0431,0.0198,0.006,-0.0015,-0.0025,-0.0042,-0.0077,0.0019,0.0037,0.0068,0.0068,0.0068,0.0068,0.0068,0.0068,0.0221,0.0258,0.0276,0.0352,0.039,0.0455,0.05,0.0587,0.066,0.0758,0.0791,0.0794,0.0674,0.0366,0.0115,0.0032,-0.0087,-0.0086,-0.0181,-0.0106,-0.0108,-0.011,-0.0099,-0.0097,-0.0098,-0.0238,-0.024,-0.0241]}],[{"header":{"parameterUnit":"m.s-1","parameterCategory":2,"la1":30.2991,"la2":30.254,"lo1":-89.0895,"lo2":-89.0444,"dy":0.0017,"dx":0.0017,"nx":28,"ny":28,"refTime":"2024-10-04T21:00:00:Z","depth":"2","parameterNumber":2,"parameterNumberName":"U-component_of_CURRENTS"},"data":[0,0,0,0,0,0,0,0,0,0,0,0,0,0,0,0,0,0,0,0,0,0,0,0,0,0,0,0,0,0,0,0,0,0,0,0,0,0,0,0,0,0,0,0,0,0,0,0,0,0,0,0,0,0,0,0,0,0,0.1518,0.1518,0,0.1513,0.1513,0.1513,0.152,0.152,0.1521,0.1521,0.1545,0.1545,0.1546,0,0,0,0,0,0,0,0,0,0,0,0,0,0.1535,0.1534,0.1518,0.1518,0.1519,0.1513,0.1513,0.1513,0.152,0.152,0.1521,0.1521,0.1545,0.1545,0.1546,0,0,0,0,0,0,0,0,0,0,0,0,0,0.1527,0.1534,0.1518,0.1522,0.1523,0.1513,0.1513,0.1513,0.152,0.152,0.1521,0.1521,0.1545,0.1545,0.1546,0.1538,0,0,0.1547,0.1548,0,0,0,0,0,0,0,0,0.1528,0.1527,0.1522,0.1522,0.1522,0.1519,0.1528,0.1523,0.152,0.152,0.1521,0.1522,0.1539,0.154,0.1536,0.154,0.1541,0.1547,0.1548,0.1548,0.1548,0,0,0,0,0,0,0,0.1528,0.1527,0.1515,0.1522,0.1522,0.1524,0.1524,0.1527,0.1527,0.152,0.1521,0.1521,0.154,0.1536,0.1537,0.1541,0.1547,0.1548,0.1548,0.1548,0.1586,0.1587,0,0,0,0,0,0,0.153,0.1527,0.1516,0.1515,0.1527,0.1524,0.1523,0.1519,0.1526,0.1528,0.1521,0.1522,0.1535,0.1536,0.1538,0.1574,0.1548,0.1548,0.1549,0.1585,0.1586,0.1587,0,0,0,0,0,0,0.153,0.1529,0.1516,0.1522,0.1521,0.1523,0.1518,0.1518,0.1525,0.1527,0.1529,0.1529,0.1535,0.1537,0.1557,0.1573,0.1549,0.1549,0.1585,0.1586,0.1587,0.1617,0,0,0,0,0,0,0.1531,0.1529,0.1529,0.1522,0.1521,0.1522,0.1517,0.1518,0.1524,0.1526,0.1534,0.1536,0.1536,0.1557,0.1558,0.1573,0.1549,0.1584,0.1585,0.1586,0.1615,0.1619,0.1622,0,0,0,0,0,0.1531,0.1527,0.1529,0.1527,0.1519,0.1523,0.1522,0.1525,0.1524,0.1532,0.154,0.1536,0.1566,0.1558,0.1559,0.1575,0.1583,0.1585,0.1586,0.1613,0.1618,0.1622,0,0,0,0,0,0,0.1533,0.1527,0.1529,0.1523,0.153,0.1525,0.1527,0.153,0.1539,0.1542,0.1545,0.1548,0.1571,0.1568,0.1559,0.159,0.1574,0.1576,0.1594,0.1599,0.1602,0.1604,0.155,0,0,0,0,0,0.1533,0.153,0.153,0.1528,0.153,0.1531,0.1532,0.1536,0.1542,0.1546,0.1553,0.1562,0.1575,0.1584,0.1591,0.1607,0.1614,0.1619,0.1622,0.1625,0.1628,0.166,0.1667,0.1592,0.1592,0.1592,0,0,0.1532,0.153,0.1528,0.1529,0.153,0.1537,0.1533,0.1539,0.155,0.1548,0.1566,0.1575,0.1582,0.1603,0.1613,0.1605,0.1649,0.1627,0.163,0.1631,0.1663,0.167,0.1676,0.1593,0.1593,0.1593,0,0,0.1531,0.1529,0.1528,0.1534,0.1541,0.1544,0.155,0.1554,0.1563,0.1579,0.1584,0.1606,0.1616,0.1632,0.1639,0.1666,0.1667,0.1668,0.1689,0.1721,0.1727,0.1733,0.1748,0.1754,0.1671,0.1671,0.1671,0,0.1533,0.1529,0.153,0.1534,0.1541,0.155,0.1557,0.1567,0.158,0.1594,0.159,0.1625,0.1631,0.1666,0.1676,0.1675,0.1687,0.1672,0.1726,0.1732,0.1737,0.1751,0.1758,0.1672,0.1672,0.1672,0.1672,0,0.153,0.1533,0.1534,0.1543,0.1553,0.156,0.1575,0.1591,0.1601,0.1615,0.1651,0.1662,0.1686,0.1692,0.1691,0.1735,0.173,0.1727,0.1715,0.1747,0.1759,0.1766,0.1675,0.1674,0.1674,0.1673,0,0,0.1517,0.153,0.1531,0.1538,0.1558,0.1564,0.1589,0.1616,0.164,0.1658,0.1692,0.1716,0.1729,0.1738,0.1746,0.1772,0.1817,0.1767,0.1768,0.1782,0.1881,0.1811,0.1812,0.1828,0.183,0.1831,0.1873,0,0.1517,0.1525,0.1534,0.155,0.1557,0.1578,0.1603,0.1631,0.1659,0.1695,0.1721,0.1756,0.1745,0.1766,0.179,0.1815,0.1838,0.1806,0.1848,0.1849,0.1784,0.1819,0.1653,0.1671,0.1879,0.188,0.1881,0,0.1508,0.1517,0.1529,0.1556,0.1562,0.1578,0.1622,0.1649,0.1705,0.1731,0.1772,0.1793,0.184,0.1823,0.1881,0.1864,0.1873,0.1885,0.1887,0.1817,0.1792,0.1674,0.1675,0.1893,0.1892,0.1891,0.189,0,0.1492,0.1512,0.1523,0.153,0.1564,0.158,0.1607,0.166,0.1695,0.1764,0.1794,0.1848,0.1881,0.1909,0.1925,0.1914,0.1979,0.1968,0.1913,0.1907,0.177,0.175,0.2006,0.2006,0.2005,0.2005,0.2005,0,0.1482,0.1489,0.1516,0.1521,0.1546,0.1575,0.1619,0.1656,0.1721,0.1763,0.1814,0.1848,0.1906,0.1941,0.1949,0.1949,0.2,0.1922,0.1918,0.1774,0.1755,0.1948,0.1941,0.2007,0.2007,0.2006,0.2006,0,0.146,0.1475,0.1489,0.1524,0.1537,0.1558,0.1622,0.1655,0.172,0.1776,0.18,0.1872,0.1911,0.1947,0.1998,0.1973,0.1986,0.197,0.1788,0.1761,0.1886,0.188,0.1919,0.1917,0.1915,0.1914,0.1912,0,0.1448,0.1453,0.1487,0.1499,0.1515,0.1554,0.1583,0.1652,0.1685,0.1774,0.179,0.1857,0.1867,0.1913,0.1897,0.1899,0.1951,0.1741,0.1685,0.1887,0.188,0.1877,0.1873,0.1517,0.1513,0.1509,0.1506,0,0.1433,0.1445,0.146,0.1483,0.1507,0.1535,0.1575,0.1595,0.1669,0.17,0.1734,0.1753,0.179,0.1708,0.1714,0.1695,0.1727,0.1668,0.1941,0.156,0.151,0.1503,0.1512,0.1475,0.1478,0.148,0.1482,0.1483,0.1425,0.143,0.1449,0.1465,0.1489,0.1495,0.1497,0.1519,0.1539,0.1541,0.1611,0.1567,0.1579,0.1491,0.1447,0.1423,0.1551,0.1471,0.1482,0.1496,0.1437,0.1387,0.1317,0.1319,0.1321,0.1322,0.1324,0,0.1408,0.1415,0.1429,0.1436,0.1427,0.1464,0.1474,0.1438,0.1404,0.1403,0.1392,0.1246,0.1173,0.1197,0.1105,0.1108,0.1099,0.106,0.1028,0.1061,0.1089,0.1009,0.0775,0.0774,0.0772,0.0771,0,0,0.1402,0.1396,0.1394,0.1365,0.1371,0.1339,0.1328,0.1265,0.1231,0.1133,0.1075,0.1112,0.1149,0.0938,0.0915,0.0828,0.0941,0.0794,0.1234,0.1229,0.1256,0.1326,0.1239,0,0,0,0,0]},{"header":{"parameterUnit":"m.s-1","parameterCategory":2,"la1":30.2991,"la2":30.254,"lo1":-89.0895,"lo2":-89.0444,"dy":0.0017,"dx":0.0017,"nx":28,"ny":28,"refTime":"2024-10-04T21:00:00:Z","depth":"2","parameterNumber":3,"parameterNumberName":"V-component_of_CURRENTS"},"data":[0,0,0,0,0,0,0,0,0,0,0,0,0,0,0,0,0,0,0,0,0,0,0,0,0,0,0,0,0,0,0,0,0,0,0,0,0,0,0,0,0,0,0,0,0,0,0,0,0,0,0,0,0,0,0,0,0,0,0.0149,0.0149,0,0.0127,0.0127,0.0126,0.0099,0.0098,0.0098,0.0098,0.0033,0.0031,0.003,0,0,0,0,0,0,0,0,0,0,0,0,0,0.0148,0.0148,0.0149,0.0149,0.0148,0.0127,0.0127,0.0126,0.0099,0.0098,0.0098,0.0097,0.0033,0.0031,0.003,0,0,0,0,0,0,0,0,0,0,0,0,0,0.0138,0.0148,0.0149,0.0133,0.0131,0.0127,0.0127,0.0126,0.0099,0.0098,0.0098,0.0097,0.0034,0.0032,0.003,0.0027,0,0,0.0023,0.0022,0,0,0,0,0,0,0,0,0.0139,0.0138,0.0135,0.0134,0.0132,0.0116,0.0102,0.0091,0.0099,0.011,0.0098,0.0097,0.0057,0.0053,0.005,0.0024,0.0022,0.0023,0.0022,0.0021,0.002,0,0,0,0,0,0,0,0.014,0.0139,0.0139,0.0135,0.0133,0.012,0.0118,0.01,0.0086,0.0109,0.0107,0.0106,0.0056,0.0052,0.0048,0.0021,0.0023,0.0021,0.002,0.0019,-0.0017,-0.0017,0,0,0,0,0,0,0.0146,0.014,0.014,0.0139,0.0135,0.0121,0.0119,0.0121,0.0087,0.0081,0.0107,0.0105,0.0056,0.005,0.0045,0.0035,0.0021,0.0019,0.0018,-0.0017,-0.0017,-0.0016,0,0,0,0,0,0,0.0146,0.0146,0.0141,0.0139,0.0138,0.0122,0.0124,0.0121,0.0111,0.0086,0.0079,0.01,0.0055,0.0048,0.0027,0.0032,0.0018,0.0016,-0.0017,-0.0017,-0.0017,0.0018,0,0,0,0,0,0,0.0146,0.0147,0.0148,0.014,0.0138,0.0136,0.0125,0.0121,0.0112,0.011,0.0078,0.0072,0.0054,0.003,0.0025,0.0029,0.0014,-0.0018,-0.0017,-0.0017,0.0016,0.0019,0.0022,0,0,0,0,0,0.0146,0.0151,0.0149,0.0149,0.0142,0.0137,0.0134,0.012,0.0113,0.0109,0.0089,0.0073,0.003,0.0029,0.0022,0.0026,-0.0018,-0.0017,-0.0017,0.0015,0.0018,0.0022,0,0,0,0,0,0,0.0147,0.0149,0.0146,0.0149,0.0143,0.0132,0.013,0.0121,0.0103,0.0099,0.0073,0.0065,0.0049,0.0034,0.0033,0.0018,0.0005,0.0004,0.0031,0.0034,0.0037,0.0052,0.0013,0,0,0,0,0,0.0151,0.0156,0.0152,0.0153,0.0153,0.0141,0.0137,0.0129,0.0115,0.0106,0.0085,0.0065,0.0049,0.0038,0.002,0.001,0.0,0.001,0.0013,0.0015,0.0024,0.0012,0.0015,-0.0014,-0.0014,-0.0014,0,0,0.015,0.0153,0.0154,0.0154,0.0149,0.0154,0.0137,0.0133,0.0135,0.0102,0.0093,0.0071,0.0048,0.0038,0.003,0.0024,0.0018,0.0016,0.0018,0.0026,0.0013,0.0016,0.0019,-0.0014,-0.0014,-0.0014,0,0,0.0157,0.0157,0.0165,0.0165,0.0163,0.0159,0.0159,0.0149,0.0141,0.0132,0.0111,0.0095,0.0066,0.0056,0.0047,0.0055,0.0033,0.0046,0.0072,0.0061,0.0064,0.0066,0.0057,0.0058,0.0048,0.0048,0.0048,0,0.0156,0.0171,0.0165,0.0175,0.018,0.0164,0.0176,0.0168,0.0151,0.015,0.0133,0.0104,0.008,0.0076,0.0078,0.0063,0.0051,0.0061,0.0065,0.0067,0.0069,0.0059,0.006,0.005,0.005,0.005,0.005,0,0.0174,0.0184,0.0189,0.0202,0.0203,0.021,0.0205,0.0201,0.019,0.0185,0.0174,0.0143,0.0127,0.0116,0.0097,0.0098,0.0085,0.0069,0.0058,0.0074,0.0063,0.0063,0.0053,0.0052,0.0051,0.0051,0,0,0.0178,0.0199,0.0201,0.0215,0.0221,0.0227,0.0232,0.0238,0.025,0.0224,0.0234,0.0202,0.0185,0.0173,0.0146,0.0135,0.0131,0.0108,0.0106,0.0102,0.0106,0.0105,0.0105,0.0112,0.0112,0.0112,0.0094,0,0.0195,0.0225,0.0229,0.0255,0.0272,0.0267,0.0278,0.028,0.0277,0.028,0.0251,0.0244,0.0206,0.0197,0.0181,0.0146,0.0133,0.0138,0.0089,0.0088,0.0088,0.0106,0.0128,0.0114,0.0094,0.0094,0.0094,0,0.0215,0.0235,0.0266,0.0295,0.0302,0.0312,0.0336,0.0345,0.0346,0.0342,0.033,0.0302,0.0282,0.0245,0.0198,0.0201,0.0158,0.0128,0.0126,0.0116,0.0088,0.0095,0.0115,0.0094,0.0094,0.0094,0.0094,0,0.0232,0.0262,0.0291,0.03,0.0327,0.0338,0.0351,0.0363,0.0385,0.0381,0.0391,0.0357,0.0343,0.0288,0.0221,0.0207,0.0171,0.0143,0.0103,0.0102,0.0108,0.0108,0.011,0.011,0.011,0.011,0.011,0,0.0255,0.0278,0.0301,0.0318,0.0356,0.0363,0.0403,0.041,0.0432,0.0467,0.0422,0.0439,0.0352,0.0316,0.0246,0.0184,0.0188,0.0117,0.0101,0.012,0.0121,0.0092,0.009,0.0109,0.011,0.011,0.011,0,0.0272,0.0286,0.0323,0.0354,0.0366,0.0393,0.0441,0.0475,0.0484,0.0525,0.0523,0.0504,0.0461,0.0375,0.0294,0.0225,0.0158,0.013,0.0161,0.0149,0.0089,0.0089,0.0087,0.0087,0.0087,0.0086,0.0086,0,0.0285,0.0305,0.0351,0.0378,0.0393,0.0434,0.047,0.0498,0.0542,0.0572,0.06,0.0566,0.056,0.0447,0.0326,0.0212,0.0177,0.0142,0.0118,0.0103,0.0088,0.0088,0.0088,0.0137,0.0137,0.0137,0.0137,0,0.0312,0.0326,0.0359,0.0414,0.0454,0.0508,0.056,0.0603,0.0641,0.0676,0.0721,0.0715,0.061,0.0514,0.0351,0.0268,0.0162,0.0144,0.0127,0.014,0.0149,0.0134,0.0133,0.014,0.014,0.014,0.014,0.0139,0.0334,0.0362,0.0404,0.0458,0.0508,0.0576,0.0624,0.0688,0.076,0.0805,0.0806,0.0786,0.0674,0.0471,0.0344,0.0191,0.0194,0.0127,0.0126,0.0126,0.0136,0.0144,0.0136,0.0136,0.0136,0.0136,0.0135,0,0.0364,0.0396,0.0447,0.0513,0.0573,0.0591,0.0683,0.0733,0.0819,0.0841,0.0869,0.0747,0.0646,0.0497,0.0292,0.0173,0.0152,0.0117,0.0126,0.0126,0.0124,0.0134,0.0134,0.0133,0.0133,0.0132,0,0,0.0382,0.0435,0.0461,0.0557,0.0603,0.0684,0.0736,0.0806,0.0842,0.0862,0.0838,0.0817,0.0666,0.0511,0.0367,0.0249,0.0201,0.0214,0.0232,0.026,0.026,0.0153,0.0169,0,0,0,0,0]}],[{"header":{"parameterUnit":"m.s-1","parameterCategory":2,"la1":30.2991,"la2":30.254,"lo1":-89.0895,"lo2":-89.0444,"dy":0.0017,"dx":0.0017,"nx":28,"ny":28,"refTime":"2024-10-04T21:00:00:Z","depth":"4","parameterNumber":2,"parameterNumberName":"U-component_of_CURRENTS"},"data":[0,0,0,0,0,0,0,0,0,0,0,0,0,0,0,0,0,0,0,0,0,0,0,0,0,0,0,0,0,0,0,0,0,0,0,0,0,0,0,0,0,0,0,0,0,0,0,0,0,0,0,0,0,0,0,0,0,0,0.0898,0.0898,0,0.0899,0.0899,0.0899,0.0914,0.0915,0.0915,0.0916,0.0945,0.0946,0.0946,0,0,0,0,0,0,0,0,0,0,0,0,0,0.0902,0.0902,0.0898,0.0898,0.0898,0.0899,0.0899,0.0899,0.0914,0.0915,0.0915,0.0916,0.0945,0.0946,0.0946,0,0,0,0,0,0,0,0,0,0,0,0,0,0.0901,0.0902,0.0898,0.0906,0.0907,0.0899,0.0899,0.0899,0.0914,0.0915,0.0915,0.0916,0.0945,0.0946,0.0946,0.0936,0,0,0.0948,0.0948,0,0,0,0,0,0,0,0,0.0901,0.0901,0.0905,0.0905,0.0906,0.0908,0.0912,0.0913,0.0914,0.0911,0.0916,0.0916,0.0935,0.0937,0.0934,0.0938,0.0939,0.0948,0.0948,0.0948,0.0949,0,0,0,0,0,0,0,0.0901,0.0901,0.0898,0.0905,0.0906,0.0908,0.0908,0.0912,0.0919,0.0911,0.0912,0.0913,0.0936,0.0933,0.0935,0.0939,0.0948,0.0948,0.0949,0.0949,0.0999,0.1,0,0,0,0,0,0,0.0902,0.0901,0.0898,0.0898,0.0906,0.0907,0.0908,0.0906,0.0919,0.0921,0.0913,0.0914,0.0932,0.0934,0.0936,0.0978,0.0948,0.0949,0.0949,0.0998,0.0999,0.1,0,0,0,0,0,0,0.0902,0.0901,0.0897,0.09,0.09,0.0907,0.0904,0.0906,0.0924,0.092,0.0923,0.0932,0.0933,0.0935,0.0955,0.0978,0.0949,0.095,0.0997,0.0998,0.1,0.1029,0,0,0,0,0,0,0.0902,0.0901,0.0912,0.09,0.09,0.0906,0.0904,0.0905,0.0923,0.0925,0.0937,0.0939,0.0934,0.0955,0.0956,0.0978,0.095,0.0995,0.0997,0.0999,0.1027,0.1031,0.1035,0,0,0,0,0,0.0902,0.0909,0.0912,0.0913,0.091,0.0907,0.0907,0.0913,0.0923,0.0933,0.0942,0.094,0.0968,0.0956,0.0957,0.098,0.0995,0.0997,0.0999,0.1025,0.1031,0.1035,0,0,0,0,0,0,0.0917,0.091,0.0914,0.092,0.0921,0.091,0.0922,0.0926,0.0939,0.095,0.0947,0.095,0.0977,0.0975,0.0961,0.1001,0.0983,0.0986,0.1003,0.1008,0.1012,0.1013,0.0951,0,0,0,0,0,0.0925,0.093,0.0922,0.0931,0.0933,0.0933,0.0938,0.0941,0.0945,0.0953,0.0961,0.0973,0.0983,0.0993,0.1,0.1018,0.1019,0.1036,0.104,0.1044,0.1046,0.1066,0.1073,0.1007,0.1007,0.1007,0,0,0.0934,0.0932,0.0936,0.0935,0.0939,0.0941,0.0938,0.0951,0.0959,0.0954,0.098,0.0989,0.0991,0.1012,0.1025,0.1016,0.1064,0.1047,0.105,0.105,0.1069,0.1076,0.1081,0.1009,0.1009,0.1008,0,0,0.0944,0.0953,0.0958,0.096,0.0967,0.0965,0.0974,0.0976,0.0987,0.1005,0.1007,0.1029,0.1044,0.1049,0.1053,0.1085,0.1085,0.1096,0.1118,0.1138,0.1143,0.1148,0.1158,0.1163,0.1098,0.1098,0.1098,0,0.0959,0.0958,0.0961,0.0964,0.0968,0.0978,0.0982,0.0992,0.1003,0.1015,0.1021,0.1055,0.106,0.1081,0.1095,0.1095,0.1104,0.1097,0.1143,0.1147,0.1152,0.1161,0.1166,0.11,0.11,0.11,0.1099,0,0.0961,0.0971,0.0976,0.0982,0.0988,0.0996,0.1003,0.1023,0.1041,0.1049,0.1085,0.1093,0.1115,0.1123,0.1119,0.1155,0.1152,0.1144,0.1128,0.116,0.1167,0.1173,0.1102,0.1102,0.1101,0.1101,0,0,0.0963,0.0975,0.0979,0.0983,0.0998,0.0998,0.1024,0.104,0.1062,0.1088,0.1115,0.114,0.1157,0.1163,0.1168,0.1185,0.1224,0.1183,0.1184,0.119,0.1267,0.1179,0.1176,0.1229,0.123,0.1231,0.126,0,0.0965,0.0972,0.0979,0.0992,0.0993,0.1013,0.1032,0.1054,0.1081,0.1112,0.1137,0.1168,0.1169,0.119,0.1209,0.1221,0.1239,0.1216,0.1238,0.1239,0.1154,0.118,0.1234,0.1264,0.1265,0.1266,0.1267,0,0.0957,0.0963,0.0974,0.0991,0.0995,0.101,0.1044,0.1064,0.1111,0.1138,0.1179,0.1199,0.1238,0.1232,0.1274,0.1263,0.1272,0.1276,0.1277,0.1187,0.116,0.1226,0.1276,0.1275,0.1274,0.1274,0.1273,0,0.0936,0.0955,0.0965,0.097,0.0994,0.1013,0.1035,0.1078,0.1102,0.1164,0.119,0.1238,0.1268,0.1291,0.1307,0.13,0.1342,0.1331,0.1258,0.1252,0.1309,0.1304,0.136,0.136,0.136,0.136,0.1359,0,0.0916,0.0926,0.0961,0.0963,0.0983,0.1008,0.1042,0.1075,0.1128,0.1154,0.1208,0.123,0.1287,0.1312,0.1322,0.1303,0.1358,0.1264,0.1254,0.1321,0.1317,0.1313,0.1307,0.1361,0.136,0.136,0.136,0,0.0883,0.0908,0.092,0.0957,0.0972,0.0989,0.1042,0.1062,0.1123,0.1159,0.1182,0.1244,0.1275,0.131,0.1347,0.131,0.1307,0.1288,0.1359,0.1353,0.1201,0.1197,0.1206,0.1203,0.1201,0.1199,0.1197,0,0.0862,0.0867,0.0912,0.0922,0.0942,0.0976,0.0995,0.1057,0.1075,0.1149,0.1153,0.1213,0.1243,0.1221,0.1271,0.128,0.1265,0.1253,0.1222,0.1196,0.1186,0.1186,0.1185,0.1193,0.1193,0.1192,0.1192,0,0.0822,0.085,0.0861,0.0885,0.0908,0.0923,0.0955,0.0961,0.1024,0.1092,0.1095,0.1109,0.1139,0.1165,0.1181,0.1185,0.1253,0.1227,0.1232,0.1203,0.1181,0.1173,0.1175,0.1183,0.1184,0.1185,0.1186,0,0.0797,0.0796,0.0819,0.083,0.0858,0.0848,0.0876,0.0885,0.0912,0.099,0.0992,0.1054,0.1123,0.1116,0.1131,0.1128,0.111,0.1067,0.1079,0.1089,0.1037,0.099,0.0927,0,0,0,0,0,0.0763,0.075,0.0758,0.0755,0.078,0.0795,0.0833,0.0861,0.0924,0.0897,0.094,0.0962,0.098,0.1019,0.0993,0.1085,0.1118,0.105,0.1075,0.1137,0.1146,0.1096,0,0,0,0,0,0,0.0736,0.0742,0.0733,0.0692,0.0681,0.0692,0.0715,0.0758,0.0746,0.082,0.0838,0.09,0.0938,0.0987,0.0975,0.0986,0.098,0.1098,0.1095,0.1131,0.114,0.1148,0.1099,0,0,0,0,0]},{"header":{"parameterUnit":"m.s-1","parameterCategory":2,"la1":30.2991,"la2":30.254,"lo1":-89.0895,"lo2":-89.0444,"dy":0.0017,"dx":0.0017,"nx":28,"ny":28,"refTime":"2024-10-04T21:00:00:Z","depth":"4","parameterNumber":3,"parameterNumberName":"V-component_of_CURRENTS"},"data":[0,0,0,0,0,0,0,0,0,0,0,0,0,0,0,0,0,0,0,0,0,0,0,0,0,0,0,0,0,0,0,0,0,0,0,0,0,0,0,0,0,0,0,0,0,0,0,0,0,0,0,0,0,0,0,0,0,0,0.0214,0.0214,0,0.0216,0.0216,0.0216,0.0226,0.0226,0.0226,0.0226,0.0225,0.0225,0.0225,0,0,0,0,0,0,0,0,0,0,0,0,0,0.0204,0.0204,0.0214,0.0214,0.0214,0.0216,0.0216,0.0216,0.0226,0.0226,0.0226,0.0226,0.0225,0.0225,0.0225,0,0,0,0,0,0,0,0,0,0,0,0,0,0.0207,0.0204,0.0214,0.0219,0.022,0.0216,0.0216,0.0216,0.0225,0.0226,0.0226,0.0227,0.0225,0.0225,0.0225,0.0215,0,0,0.0223,0.0223,0,0,0,0,0,0,0,0,0.0207,0.0207,0.0219,0.0219,0.022,0.0221,0.0212,0.0215,0.0225,0.0223,0.0226,0.0227,0.0223,0.0223,0.0222,0.0215,0.0215,0.0223,0.0223,0.0223,0.0223,0,0,0,0,0,0,0,0.0207,0.0207,0.0215,0.0219,0.0219,0.0216,0.0217,0.0212,0.0221,0.0224,0.0224,0.0224,0.0223,0.0223,0.0222,0.0215,0.0223,0.0223,0.0223,0.0223,0.0209,0.0209,0,0,0,0,0,0,0.0207,0.0207,0.0215,0.0215,0.0214,0.0216,0.0217,0.022,0.0221,0.0222,0.0224,0.0225,0.0223,0.0223,0.0222,0.0227,0.0223,0.0222,0.0222,0.0209,0.0209,0.0209,0,0,0,0,0,0,0.0207,0.0208,0.0215,0.0211,0.0212,0.0216,0.0219,0.022,0.0224,0.0222,0.0222,0.0228,0.0224,0.0223,0.0223,0.0226,0.0222,0.0222,0.0209,0.0209,0.0209,0.0225,0,0,0,0,0,0,0.0207,0.0208,0.0211,0.0211,0.0212,0.0215,0.0219,0.022,0.0223,0.0224,0.0225,0.0225,0.0224,0.0224,0.0223,0.0226,0.0222,0.0209,0.0209,0.0209,0.0225,0.0226,0.0226,0,0,0,0,0,0.0206,0.0207,0.0211,0.0212,0.0216,0.0215,0.0215,0.0219,0.0223,0.0224,0.0226,0.0225,0.0222,0.0224,0.0222,0.0225,0.021,0.0209,0.0209,0.0224,0.0225,0.0226,0,0,0,0,0,0,0.0201,0.0209,0.0212,0.0215,0.0217,0.0217,0.0218,0.022,0.0223,0.0225,0.0224,0.0224,0.0225,0.022,0.0223,0.0219,0.0215,0.0214,0.0227,0.0228,0.0228,0.0237,0.0221,0,0,0,0,0,0.0202,0.0208,0.0211,0.0213,0.0215,0.0217,0.0218,0.0221,0.0222,0.0224,0.0224,0.0223,0.0222,0.0222,0.0219,0.0217,0.0209,0.0217,0.0217,0.0218,0.0223,0.0213,0.0214,0.0208,0.0208,0.0208,0,0,0.02,0.0205,0.0208,0.0213,0.0215,0.0221,0.0219,0.0221,0.0228,0.0223,0.023,0.0225,0.0221,0.0222,0.0221,0.022,0.0214,0.0218,0.0218,0.0223,0.0213,0.0214,0.0214,0.0208,0.0208,0.0208,0,0,0.02,0.0205,0.0211,0.0215,0.0221,0.0223,0.0225,0.0227,0.023,0.0233,0.0232,0.023,0.0227,0.0227,0.0226,0.0227,0.0218,0.0223,0.0235,0.0226,0.0226,0.0227,0.0214,0.0213,0.0224,0.0224,0.0224,0,0.0198,0.021,0.0211,0.0219,0.0227,0.0226,0.0236,0.0236,0.0238,0.0244,0.0238,0.0237,0.0231,0.0236,0.0236,0.0229,0.0221,0.0234,0.0227,0.0228,0.0228,0.0214,0.0213,0.0225,0.0225,0.0225,0.0225,0,0.0206,0.0217,0.022,0.0235,0.024,0.0248,0.0251,0.0254,0.0257,0.026,0.0263,0.0252,0.0254,0.0247,0.0243,0.0242,0.0235,0.0229,0.0227,0.023,0.0215,0.0213,0.0226,0.0226,0.0226,0.0225,0,0,0.0201,0.0223,0.0226,0.0242,0.0253,0.0261,0.0268,0.028,0.0296,0.0285,0.0299,0.0286,0.0282,0.028,0.0269,0.0258,0.0247,0.0246,0.0245,0.0237,0.0223,0.0211,0.0208,0.0241,0.0241,0.0241,0.0211,0,0.0211,0.0236,0.0243,0.0269,0.0284,0.0289,0.0301,0.031,0.0316,0.0325,0.0308,0.0316,0.0294,0.0297,0.0281,0.0261,0.0245,0.0256,0.0219,0.0218,0.021,0.0206,0.0241,0.021,0.0209,0.0209,0.0209,0,0.0222,0.024,0.0268,0.0301,0.0308,0.0321,0.035,0.0362,0.0371,0.0375,0.0372,0.036,0.0346,0.0323,0.0284,0.0293,0.026,0.0236,0.0234,0.0218,0.0203,0.0207,0.0206,0.0206,0.0206,0.0207,0.0207,0,0.023,0.026,0.0287,0.0298,0.0328,0.0343,0.0362,0.038,0.0403,0.041,0.0422,0.0399,0.0394,0.0349,0.0297,0.0292,0.0248,0.0236,0.0191,0.0189,0.0203,0.0203,0.0203,0.0203,0.0203,0.0203,0.0203,0,0.0243,0.0266,0.0296,0.0312,0.0352,0.0365,0.0409,0.0421,0.0447,0.0476,0.0452,0.0459,0.0401,0.0366,0.031,0.0248,0.0257,0.0193,0.0182,0.0209,0.021,0.0201,0.0202,0.0202,0.0202,0.0202,0.0202,0,0.0249,0.0268,0.0304,0.0342,0.0358,0.0388,0.0444,0.0476,0.0494,0.0526,0.0529,0.051,0.0465,0.0398,0.0329,0.0273,0.021,0.0183,0.0219,0.0209,0.0153,0.0154,0.0131,0.013,0.0129,0.0129,0.0129,0,0.0255,0.0274,0.0327,0.0354,0.0375,0.0424,0.0461,0.0498,0.0532,0.0555,0.0568,0.0538,0.051,0.0404,0.0332,0.0224,0.0202,0.0164,0.0153,0.0155,0.0146,0.0148,0.015,0.0128,0.0128,0.0127,0.0127,0,0.0268,0.0287,0.0319,0.0375,0.0419,0.0473,0.0524,0.055,0.0588,0.0601,0.0596,0.054,0.0489,0.0404,0.0322,0.0242,0.0186,0.0157,0.0158,0.0147,0.0151,0.0143,0.0146,0.0125,0.0126,0.0126,0.0126,0,0.0278,0.0302,0.0345,0.0395,0.0451,0.0504,0.0532,0.0568,0.0601,0.0616,0.0613,0.0555,0.0527,0.0414,0.0339,0.026,0.0233,0.0193,0.0191,0.0192,0.0215,0.0229,0.0218,0,0,0,0,0,0.0288,0.0317,0.0362,0.0418,0.0473,0.0507,0.0568,0.0592,0.062,0.0616,0.0616,0.0564,0.0455,0.0417,0.0335,0.0323,0.0218,0.0223,0.017,0.0114,0.0117,0.0132,0,0,0,0,0,0,0.0295,0.0337,0.0361,0.0428,0.0467,0.0531,0.0571,0.0591,0.0592,0.0602,0.0551,0.0526,0.0429,0.0498,0.0327,0.0306,0.0256,0.0178,0.0176,0.0113,0.0115,0.0117,0.0133,0,0,0,0,0]}]]